Time,TemperatureF,DewpointF,PressureIn,WindDirection,WindDirectionDegrees,WindSpeedMPH,WindSpeedGustMPH,Humidity,HourlyPrecipIn,Conditions,Clouds,dailyrainin,SoftwareType,DateUTC
2013-10-27 00:14:00,29.9,16.0,30.33,NNE,31,0.0,-999.0,56,-99.99,,,0.00,weatherlink.com 1.10,2013-10-27 06:14:00,
2013-10-27 00:29:00,29.3,16.0,30.33,NNE,31,0.0,-999.0,57,-99.99,,,0.00,weatherlink.com 1.10,2013-10-27 06:29:00,
2013-10-27 00:44:00,28.9,16.0,30.32,NNE,31,0.0,-999.0,58,-99.99,,,0.00,weatherlink.com 1.10,2013-10-27 06:44:00,
2013-10-27 00:59:00,28.5,16.0,30.32,NNE,31,0.0,-999.0,59,-99.99,,,0.00,weatherlink.com 1.10,2013-10-27 06:59:00,
2013-10-27 01:14:00,27.5,15.0,30.32,NNE,31,0.0,-999.0,60,-99.99,,,0.00,weatherlink.com 1.10,2013-10-27 07:14:00,
2013-10-27 01:29:00,26.5,15.0,30.31,NNE,31,0.0,-999.0,61,-99.99,,,0.00,weatherlink.com 1.10,2013-10-27 07:29:00,
2013-10-27 01:44:00,26.0,15.0,30.32,NNE,31,0.0,-999.0,63,-99.99,,,0.00,weatherlink.com 1.10,2013-10-27 07:44:00,
2013-10-27 01:59:00,26.5,15.0,30.32,NNE,31,0.0,-999.0,63,-99.99,,,0.00,weatherlink.com 1.10,2013-10-27 07:59:00,
2013-10-27 02:13:00,26.5,15.0,30.31,NNE,31,0.0,-999.0,63,-99.99,,,0.00,weatherlink.com 1.10,2013-10-27 08:13:00,
2013-10-27 02:28:00,26.6,16.0,30.30,NNE,31,0.0,-999.0,64,-99.99,,,0.00,weatherlink.com 1.10,2013-10-27 08:28:00,
2013-10-27 02:43:00,27.6,16.0,30.29,NNE,31,0.0,-999.0,63,-99.99,,,0.00,weatherlink.com 1.10,2013-10-27 08:43:00,
2013-10-27 02:58:00,29.4,17.0,30.29,NNE,19,2.0,-999.0,60,-99.99,,,0.00,weatherlink.com 1.10,2013-10-27 08:58:00,
2013-10-27 03:13:00,30.8,17.0,30.29,NNE,17,0.0,-999.0,58,-99.99,,,0.00,weatherlink.com 1.10,2013-10-27 09:13:00,
2013-10-27 03:28:00,30.8,17.0,30.28,NNE,17,0.0,-999.0,58,-99.99,,,0.00,weatherlink.com 1.10,2013-10-27 09:28:00,
2013-10-27 03:43:00,29.6,17.0,30.28,NNE,17,0.0,-999.0,59,-99.99,,,0.00,weatherlink.com 1.10,2013-10-27 09:43:00,
2013-10-27 03:58:00,28.6,16.0,30.27,NNE,17,0.0,-999.0,60,-99.99,,,0.00,weatherlink.com 1.10,2013-10-27 09:58:00,
2013-10-27 04:13:00,27.8,16.0,30.25,NNE,17,0.0,-999.0,62,-99.99,,,0.00,weatherlink.com 1.10,2013-10-27 10:13:00,
2013-10-27 04:28:00,26.9,16.0,30.25,NNE,17,0.0,-999.0,64,-99.99,,,0.00,weatherlink.com 1.10,2013-10-27 10:28:00,
2013-10-27 04:44:00,27.9,17.0,30.24,NNE,17,0.0,-999.0,63,-99.99,,,0.00,weatherlink.com 1.10,2013-10-27 10:44:00,
2013-10-27 04:58:00,29.2,17.0,30.23,North,5,0.0,-999.0,61,-99.99,,,0.00,weatherlink.com 1.10,2013-10-27 10:58:00,
2013-10-27 05:15:00,30.4,17.0,30.23,SW,225,0.0,-999.0,58,-99.99,,,0.00,weatherlink.com 1.10,2013-10-27 11:15:00,
2013-10-27 05:29:00,30.5,17.0,30.23,SW,225,0.0,-999.0,57,-99.99,,,0.00,weatherlink.com 1.10,2013-10-27 11:29:00,
2013-10-27 05:44:00,29.9,17.0,30.23,SW,225,0.0,-999.0,58,-99.99,,,0.00,weatherlink.com 1.10,2013-10-27 11:44:00,
2013-10-27 05:59:00,29.3,16.0,30.23,SW,225,0.0,-999.0,57,-99.99,,,0.00,weatherlink.com 1.10,2013-10-27 11:59:00,
2013-10-27 06:15:00,30.7,15.0,30.22,SSW,194,1.0,-999.0,53,-99.99,,,0.00,weatherlink.com 1.10,2013-10-27 12:15:00,
2013-10-27 06:29:00,31.5,16.0,30.22,SW,227,0.0,-999.0,52,-99.99,,,0.00,weatherlink.com 1.10,2013-10-27 12:29:00,
2013-10-27 06:43:00,31.2,16.0,30.20,SW,227,0.0,-999.0,53,-99.99,,,0.00,weatherlink.com 1.10,2013-10-27 12:43:00,
2013-10-27 06:59:00,30.9,16.0,30.20,SSE,153,0.0,-999.0,54,-99.99,,,0.00,weatherlink.com 1.10,2013-10-27 12:59:00,
2013-10-27 07:15:00,30.6,16.0,30.19,SSE,155,0.0,-999.0,55,-99.99,,,0.00,weatherlink.com 1.10,2013-10-27 13:15:00,
2013-10-27 07:29:00,30.3,16.0,30.19,SSE,155,2.0,-999.0,56,-99.99,,,0.00,weatherlink.com 1.10,2013-10-27 13:29:00,
2013-10-27 07:45:00,30.5,17.0,30.19,SSE,155,0.0,-999.0,57,-99.99,,,0.00,weatherlink.com 1.10,2013-10-27 13:45:00,
2013-10-27 07:59:00,31.2,17.0,30.19,SSE,157,0.0,-999.0,56,-99.99,,,0.00,weatherlink.com 1.10,2013-10-27 13:59:00,
2013-10-27 08:15:00,32.1,18.0,30.18,SW,227,0.0,-999.0,56,-99.99,,,0.00,weatherlink.com 1.10,2013-10-27 14:15:00,
2013-10-27 08:29:00,33.0,19.0,30.17,SW,217,0.0,-999.0,56,-99.99,,,0.00,weatherlink.com 1.10,2013-10-27 14:29:00,
2013-10-27 08:44:00,34.0,19.0,30.18,WSW,255,0.0,-999.0,55,-99.99,,,0.00,weatherlink.com 1.10,2013-10-27 14:44:00,
2013-10-27 08:59:00,35.4,20.0,30.18,WSW,242,1.0,-999.0,53,-99.99,,,0.00,weatherlink.com 1.10,2013-10-27 14:59:00,
2013-10-27 09:14:00,36.8,19.0,30.17,SW,236,0.0,-999.0,49,-99.99,,,0.00,weatherlink.com 1.10,2013-10-27 15:14:00,
2013-10-27 09:29:00,37.2,19.0,30.16,SW,221,2.0,-999.0,48,-99.99,,,0.00,weatherlink.com 1.10,2013-10-27 15:29:00,
2013-10-27 09:44:00,37.7,19.0,30.15,WSW,238,4.0,-999.0,48,-99.99,,,0.00,weatherlink.com 1.10,2013-10-27 15:44:00,
2013-10-27 09:59:00,38.3,20.0,30.14,NNE,18,0.0,-999.0,47,-99.99,,,0.00,weatherlink.com 1.10,2013-10-27 15:59:00,
2013-10-27 10:14:00,38.9,19.0,30.12,WNW,291,1.0,-999.0,45,-99.99,,,0.00,weatherlink.com 1.10,2013-10-27 16:14:00,
2013-10-27 10:29:00,39.9,19.0,30.12,SSW,211,4.0,-999.0,44,-99.99,,,0.00,weatherlink.com 1.10,2013-10-27 16:29:00,
2013-10-27 10:44:00,40.6,18.0,30.11,West,263,1.0,-999.0,41,-99.99,,,0.00,weatherlink.com 1.10,2013-10-27 16:44:00,
2013-10-27 10:59:00,41.0,18.0,30.11,SW,229,4.0,-999.0,40,-99.99,,,0.00,weatherlink.com 1.10,2013-10-27 16:59:00,
2013-10-27 11:14:00,41.8,18.0,30.11,WSW,242,1.0,-999.0,38,-99.99,,,0.00,weatherlink.com 1.10,2013-10-27 17:14:00,
2013-10-27 11:29:00,42.8,19.0,30.10,NW,319,6.0,-999.0,38,-99.99,,,0.00,weatherlink.com 1.10,2013-10-27 17:29:00,
2013-10-27 11:44:00,43.8,18.0,30.10,NNW,332,4.0,-999.0,36,-99.99,,,0.00,weatherlink.com 1.10,2013-10-27 17:44:00,
2013-10-27 12:00:00,44.5,18.0,30.09,SE,135,0.0,-999.0,35,-99.99,,,0.00,weatherlink.com 1.10,2013-10-27 18:00:00,
2013-10-27 12:15:00,44.3,17.0,30.07,SSE,148,5.0,-999.0,33,-99.99,,,0.00,weatherlink.com 1.10,2013-10-27 18:15:00,
2013-10-27 12:29:00,44.9,17.0,30.07,NW,306,2.0,-999.0,32,-99.99,,,0.00,weatherlink.com 1.10,2013-10-27 18:29:00,
2013-10-27 12:45:00,45.6,16.0,30.06,SSW,207,1.0,-999.0,30,-99.99,,,0.00,weatherlink.com 1.10,2013-10-27 18:45:00,
2013-10-27 12:59:00,46.1,16.0,30.05,NW,323,4.0,-999.0,30,-99.99,,,0.00,weatherlink.com 1.10,2013-10-27 18:59:00,
2013-10-27 13:14:00,46.3,17.0,30.03,NW,308,0.0,-999.0,31,-99.99,,,0.00,weatherlink.com 1.10,2013-10-27 19:14:00,
2013-10-27 13:29:00,44.7,15.0,30.02,West,261,1.0,-999.0,30,-99.99,,,0.00,weatherlink.com 1.10,2013-10-27 19:29:00,
2013-10-27 13:43:00,45.2,15.0,30.01,SSW,205,1.0,-999.0,30,-99.99,,,0.00,weatherlink.com 1.10,2013-10-27 19:43:00,
2013-10-27 13:59:00,45.3,15.0,30.01,NNW,333,1.0,-999.0,30,-99.99,,,0.00,weatherlink.com 1.10,2013-10-27 19:59:00,
2013-10-27 14:14:00,45.5,16.0,30.00,South,179,0.0,-999.0,30,-99.99,,,0.00,weatherlink.com 1.10,2013-10-27 20:14:00,
2013-10-27 14:29:00,46.1,15.0,29.98,West,275,0.0,-999.0,29,-99.99,,,0.00,weatherlink.com 1.10,2013-10-27 20:29:00,
2013-10-27 14:44:00,46.7,17.0,29.99,WNW,289,0.0,-999.0,30,-99.99,,,0.00,weatherlink.com 1.10,2013-10-27 20:44:00,
2013-10-27 14:59:00,46.8,17.0,29.98,WSW,245,2.0,-999.0,31,-99.99,,,0.00,weatherlink.com 1.10,2013-10-27 20:59:00,
2013-10-27 15:15:00,47.3,17.0,29.98,WSW,256,1.0,-999.0,30,-99.99,,,0.00,weatherlink.com 1.10,2013-10-27 21:15:00,
2013-10-27 15:29:00,45.8,17.0,29.99,NNW,334,0.0,-999.0,31,-99.99,,,0.00,weatherlink.com 1.10,2013-10-27 21:29:00,
2013-10-27 15:45:00,45.0,15.0,29.99,NW,312,4.0,-999.0,30,-99.99,,,0.00,weatherlink.com 1.10,2013-10-27 21:45:00,
2013-10-27 15:58:00,44.9,17.0,29.98,WNW,299,0.0,-999.0,32,-99.99,,,0.00,weatherlink.com 1.10,2013-10-27 21:58:00,
2013-10-27 16:13:00,44.8,16.0,29.99,NW,325,0.0,-999.0,32,-99.99,,,0.00,weatherlink.com 1.10,2013-10-27 22:13:00,
2013-10-27 16:28:00,44.1,17.0,29.98,NW,308,0.0,-999.0,33,-99.99,,,0.00,weatherlink.com 1.10,2013-10-27 22:28:00,
2013-10-27 16:43:00,43.7,16.0,29.99,NW,324,0.0,-999.0,33,-99.99,,,0.00,weatherlink.com 1.10,2013-10-27 22:43:00,
2013-10-27 16:58:00,42.9,16.0,29.98,NNW,333,0.0,-999.0,34,-99.99,,,0.00,weatherlink.com 1.10,2013-10-27 22:58:00,
2013-10-27 17:13:00,42.3,16.0,29.98,NNW,329,0.0,-999.0,35,-99.99,,,0.00,weatherlink.com 1.10,2013-10-27 23:13:00,
2013-10-27 17:28:00,41.8,16.0,29.98,NNW,329,0.0,-999.0,35,-99.99,,,0.00,weatherlink.com 1.10,2013-10-27 23:28:00,
2013-10-27 17:43:00,41.3,14.0,29.98,NNW,329,0.0,-999.0,33,-99.99,,,0.00,weatherlink.com 1.10,2013-10-27 23:43:00,
2013-10-27 17:59:00,40.3,15.0,29.98,NNW,329,0.0,-999.0,35,-99.99,,,0.00,weatherlink.com 1.10,2013-10-27 23:59:00,
2013-10-27 18:14:00,39.0,14.0,29.99,NNW,329,0.0,-999.0,36,-99.99,,,0.00,weatherlink.com 1.10,2013-10-28 00:14:00,
2013-10-27 18:29:00,37.2,13.0,30.00,NNW,329,0.0,-999.0,37,-99.99,,,0.00,weatherlink.com 1.10,2013-10-28 00:29:00,
2013-10-27 18:44:00,35.3,12.0,30.00,NNW,329,0.0,-999.0,39,-99.99,,,0.00,weatherlink.com 1.10,2013-10-28 00:44:00,
2013-10-27 18:59:00,33.5,13.0,30.00,NNW,329,0.0,-999.0,42,-99.99,,,0.00,weatherlink.com 1.10,2013-10-28 00:59:00,
2013-10-27 19:14:00,31.8,12.0,30.00,NNW,329,0.0,-999.0,44,-99.99,,,0.00,weatherlink.com 1.10,2013-10-28 01:14:00,
2013-10-27 19:29:00,30.5,11.0,30.00,NNW,329,0.0,-999.0,45,-99.99,,,0.00,weatherlink.com 1.10,2013-10-28 01:29:00,
2013-10-27 19:44:00,29.4,12.0,30.00,NNW,329,0.0,-999.0,48,-99.99,,,0.00,weatherlink.com 1.10,2013-10-28 01:44:00,
2013-10-27 19:59:00,28.2,12.0,30.00,NNW,329,0.0,-999.0,51,-99.99,,,0.00,weatherlink.com 1.10,2013-10-28 01:59:00,
2013-10-27 20:15:00,27.5,12.0,29.99,NNW,329,0.0,-999.0,52,-99.99,,,0.00,weatherlink.com 1.10,2013-10-28 02:15:00,
2013-10-27 20:29:00,27.0,12.0,29.98,NNW,329,0.0,-999.0,54,-99.99,,,0.00,weatherlink.com 1.10,2013-10-28 02:29:00,
2013-10-27 20:43:00,26.5,12.0,29.99,NNW,329,0.0,-999.0,54,-99.99,,,0.00,weatherlink.com 1.10,2013-10-28 02:43:00,
2013-10-27 20:59:00,26.3,12.0,29.99,NNW,329,0.0,-999.0,54,-99.99,,,0.00,weatherlink.com 1.10,2013-10-28 02:59:00,
2013-10-27 21:14:00,26.2,11.0,30.00,NNW,329,0.0,-999.0,54,-99.99,,,0.00,weatherlink.com 1.10,2013-10-28 03:14:00,
2013-10-27 21:29:00,26.0,11.0,30.00,NNW,329,0.0,-999.0,54,-99.99,,,0.00,weatherlink.com 1.10,2013-10-28 03:29:00,
2013-10-27 21:44:00,25.9,12.0,30.01,NNW,329,0.0,-999.0,56,-99.99,,,0.00,weatherlink.com 1.10,2013-10-28 03:44:00,
2013-10-27 21:59:00,25.7,12.0,30.01,NNW,329,0.0,-999.0,57,-99.99,,,0.00,weatherlink.com 1.10,2013-10-28 03:59:00,
2013-10-27 22:14:00,25.7,12.0,30.01,NNW,329,0.0,-999.0,57,-99.99,,,0.00,weatherlink.com 1.10,2013-10-28 04:14:00,
2013-10-27 22:29:00,25.7,12.0,30.01,NNW,329,0.0,-999.0,57,-99.99,,,0.00,weatherlink.com 1.10,2013-10-28 04:29:00,
2013-10-27 22:44:00,26.0,13.0,30.00,NNW,329,0.0,-999.0,58,-99.99,,,0.00,weatherlink.com 1.10,2013-10-28 04:44:00,
2013-10-27 22:59:00,26.2,14.0,30.00,NNW,329,0.0,-999.0,59,-99.99,,,0.00,weatherlink.com 1.10,2013-10-28 04:59:00,
2013-10-27 23:14:00,26.1,13.0,30.00,NNW,329,0.0,-999.0,59,-99.99,,,0.00,weatherlink.com 1.10,2013-10-28 05:14:00,
2013-10-27 23:29:00,25.6,13.0,30.00,NNW,329,0.0,-999.0,60,-99.99,,,0.00,weatherlink.com 1.10,2013-10-28 05:29:00,
2013-10-27 23:44:00,25.2,13.0,30.00,NNW,329,0.0,-999.0,60,-99.99,,,0.00,weatherlink.com 1.10,2013-10-28 05:44:00,
2013-10-27 23:59:00,24.9,13.0,29.99,NNW,329,0.0,-999.0,61,-99.99,,,0.00,weatherlink.com 1.10,2013-10-28 05:59:00,